Tracking 35331 objects as of 16-Sep-2026
HD Live streaming from Space Station
objects crossing your sky now

STARLINK-30787

Track STARLINK-30787 now!
10-day predictions
STARLINK-30787 is classified as:


NORAD ID: 58128
Int'l Code: 2023-162L
Launch date: October 22, 2023
Source: United States (US)
Launch site: AIR FORCE EASTERN TEST RANGE (AFETR)
Your satellite tracking list
Your tracking list is empty




NASA's NSSDC Master Catalog

Two Line Element Set (TLE):
1 58128U 23162L   26258.95791114 -.00002472  00000-0 -80388-4 0  9996
2 58128  43.0030 134.7636 0001441 269.2973  90.7714 15.27552063161444
Source of the keplerian elements: AFSPC